sat.trackr.live / text

‹ back to catalog

ONEWEB-0688

NORAD 61596 · 2024-188C

PAYLOAD ACTIVE UNKNOWN

§ Identity

Operator
Country
UK
Launch date
2024-10-20
Launch site
AFWTR
Launch vehicle
Mass (kg)
RCS (m²)

Purposes: comms

External: N2YO · Heavens-Above · Gunter

§ Orbital elements

Epoch: 2026-05-25T02:22:27.932160Z

Period
109.29 min
Inclination
87.9148°
Eccentricity
0.0003065
Mean motion
13.17651509 rev/d
Perigee alt
1,191.4 km
Apogee alt
1,196.0 km
Semi-major
7,571.8 km
B*
9.1441e-5
RAAN
10.4691°
Arg perigee
86.7434°
Mean anomaly
273.4048°
Rev number
8,285

§ Raw data

ONEWEB-06881 61596U 24188C   26145.09893440  .00000048  00000+0  91441-4 0  99992 61596  87.9148  10.4691 0003065  86.7434 273.4048 13.17651509 82852

JSON: /api/v1/satellites/61596 · /tle

For live sub-satellite position, see the globe view (requires WebGL).

§ Visibility from observer

Set your observer location to see the next 7 days of passes ≥ 10°. The values pass through the URL so the page stays shareable.

No JS? Fill the form by hand. The geolocation button needs JavaScript.